User: anonymous   Login
Location: Goodsell Observatory
(44.4617°N, 93.1522°W)
Time: 17:49:58
(UTC-05:00)
Language:

Hubble Space Telescope - Orbit

View from above orbital plane
View from above orbital plane
View from above satellite
View from above satellite

Ground track
Ground track

The orbit data is extracted from the following two-line orbital elements,

1 20580U 90037B   17267.63340823 +.00000631 +00000-0 +27885-4 0  9990
2 20580 028.4697 070.3603 0002785 159.5482 287.1489 15.08858408305237
Epoch (UTC): 24 September 2017 15:12:06
Eccentricity: 0.0002785
inclination: 28.4697°
perigee height: 538 km
apogee height: 541 km
right ascension of ascending node: 70.3603°
argument of perigee: 159.5482°
revolutions per day: 15.08858408
mean anomaly at epoch: 287.1489°
orbit number at epoch: 30523

The dashed part of the orbit path shows where the satellite is in the earth's shadow,  

DLR